Weather in Litvinov

Czech Republic     50°35′47″N   13°36′43″E
temp.,
°C
wind,
m/s
gust,
m/s
humid.,
%
clouds,
%
prec.,
mm/h
press.,
hPa
HPBL,
m
3 march, wed
wed301:00+3wsw01790 0.0 103322
04:00+2w00830 0.0 103122
07:00+1wnw008511 0.0 103122
10:00+6sse116515 0.0 1030191
13:00+10sse125412 0.0 1028362
16:00+12sse12530 0.0 1026222
19:00+7wnw126914 0.0 102530
22:00+6w237038 0.0 102469
4 march, thu
thu401:00+5wsw138141 0.0 102378
04:00+4w12888 0.0 102141
07:00+4w12904 0.0 102042
10:00+9w256933 0.0 1019465
13:00+11wnw486462 0.1 10171198
16:00+10wnw257187 0.7 1014622
19:00+7nnw368693 4.5 1015614
22:00+4nnw3689100 0.4 1015438
5 march, fri
fri501:00+3nnw4792100 0.7 1016495
04:00+2nnw3788100 0.3 1017628
07:000nnw368097 0.4 1020554
10:00+1n466867 0.1 1022971
13:00+2nne575375 0.2 10241239
16:00+2nne56500 0.0 10241441
19:00−1nnw36620 0.0 1028415
22:00−1nnw26610 0.0 1030307
6 march, sat
sat601:00−2nnw23630 0.0 1032188
04:00−2nnw12610 0.0 1032221
07:00−3nw12610 0.0 1034176
10:000n11440 0.0 10351009
13:00+3sse11360 0.0 10341301
16:00+3sse12390 0.0 10331007
19:00−1sw11510 0.0 1032116
22:00−1wsw11550 0.0 103293
7 march, sun
sun701:00−2w11550 0.0 103132
04:00−2w11530 0.0 102924
07:00−2wnw11511 0.0 102825
10:00+3wsw12361 0.0 1027561
13:00+6ssw13304 0.0 10241055
16:00+6sw02349 0.0 1021811
19:00+1nnw22525 0.0 102142
22:000wnw115964 0.0 102123